Location: La Sioule Rivi�re
(46.3664°N, 3.3197°E)
Time: 13:03:26
(UTC+00:00)

Cosmos 2297 Rocket - Pass Details

Date: 29 October 2020
Orbit: 838 x 845 km, 71.0° (Epoch: 23 November)

Event Time Altitude Azimuth Distance (km) Brightness Sun altitude
Rises 17:30:24 0° 333° (NNW) 3,415 5.6 -9.9°
Reaches altitude 10° 17:32:51 10° 334° (NNW) 2,475 4.9 -10.3°
Maximum altitude 17:38:34 87° 64° (ENE) 852 2.2 -11.3°
Drops below altitude 10° 17:44:13 10° 154° (SSE) 2,457 4.4 -12.3°
Sets 17:46:39 0° 155° (SSE) 3,387 5.2 -12.7°
